[[{"header":{"parameterUnit":"m.s-1","parameterCategory":1,"la1":30.2991,"la2":30.254,"lo1":-89.0895,"lo2":-89.0444,"dy":0.0017,"dx":0.0017,"nx":28,"ny":28,"refTime":"2025-02-10T09:00:00:Z","depth":0,"parameterNumber":2,"parameterNumberName":"U-component_of_WINDS"},"data":[0,0,0,0,0,0,0,0,0,0,0,0,0,0,0,0,0,0,0,0,0,0,0,0,0,0,0,0,0,0,0,0,0,0,0,0,0,0,0,0,0,0,0,0,0,0,0,0,0,0,0,0,0,0,0,0,0,0,-2.9382,-2.9383,0,-2.9413,-2.9413,-2.9413,-2.9334,-2.9331,-2.9329,-2.9326,-2.936,-2.9363,-2.9366,0,0,0,0,0,0,0,0,0,0,0,0,0,-2.9258,-2.9261,-2.9382,-2.9383,-2.9383,-2.9413,-2.9413,-2.9413,-2.9334,-2.9331,-2.9328,-2.9325,-2.9359,-2.9363,-2.9367,0,0,0,0,0,0,0,0,0,0,0,0,0,-2.9303,-2.9261,-2.9382,-2.9347,-2.9344,-2.9413,-2.9413,-2.9414,-2.9335,-2.9331,-2.9327,-2.9324,-2.9358,-2.9362,-2.9367,-2.9472,0,0,-2.9382,-2.9384,0,0,0,0,0,0,0,0,-2.93,-2.9307,-2.9352,-2.935,-2.9346,-2.9366,-2.9381,-2.9433,-2.9336,-2.9339,-2.9326,-2.9322,-2.9365,-2.9369,-2.9383,-2.9473,-2.9475,-2.9382,-2.9385,-2.9387,-2.9389,0,0,0,0,0,0,0,-2.9297,-2.9306,-2.9394,-2.9353,-2.9349,-2.933,-2.9333,-2.9391,-2.9373,-2.9338,-2.9332,-2.9337,-2.9363,-2.9379,-2.9383,-2.9475,-2.9382,-2.9386,-2.9389,-2.9391,-2.9655,-2.9659,0,0,0,0,0,0,-2.9298,-2.9303,-2.9393,-2.9395,-2.9314,-2.9336,-2.9338,-2.9363,-2.9372,-2.9369,-2.934,-2.9333,-2.9372,-2.9378,-2.9384,-2.9509,-2.9387,-2.9392,-2.9395,-2.9651,-2.9656,-2.966,0,0,0,0,0,0,-2.9296,-2.9307,-2.9392,-2.9348,-2.9357,-2.9342,-2.9371,-2.9366,-2.9381,-2.9373,-2.937,-2.9359,-2.9369,-2.9377,-2.9451,-2.9509,-2.9394,-2.9398,-2.9646,-2.9652,-2.9658,-2.9758,0,0,0,0,0,0,-2.9293,-2.9307,-2.9346,-2.9349,-2.936,-2.9458,-2.9374,-2.9369,-2.939,-2.9381,-2.939,-2.9388,-2.9367,-2.9444,-2.9456,-2.9513,-2.9402,-2.964,-2.9649,-2.9656,-2.9749,-2.9767,-2.9781,0,0,0,0,0,-2.9289,-2.9373,-2.9348,-2.9359,-2.9408,-2.9461,-2.9467,-2.9441,-2.9395,-2.9434,-2.9429,-2.9388,-2.95,-2.9452,-2.9465,-2.9525,-2.9637,-2.9646,-2.9655,-2.9742,-2.9763,-2.9781,0,0,0,0,0,0,-2.9377,-2.9373,-2.9345,-2.9433,-2.9448,-2.9448,-2.9497,-2.9464,-2.9493,-2.9483,-2.945,-2.9452,-2.9533,-2.9535,-2.9482,-2.9627,-2.9561,-2.9573,-2.9623,-2.9643,-2.9658,-2.9657,-2.9406,0,0,0,0,0,-2.9407,-2.9449,-2.9443,-2.9521,-2.953,-2.9513,-2.9535,-2.9513,-2.9527,-2.9534,-2.9534,-2.955,-2.9589,-2.9616,-2.9651,-2.9749,-2.9751,-2.9796,-2.9812,-2.9825,-2.9837,-2.9891,-2.9912,-2.969,-2.969,-2.969,0,0,-2.9469,-2.9471,-2.9501,-2.9539,-2.9548,-2.9595,-2.9519,-2.957,-2.9605,-2.9542,-2.9611,-2.9612,-2.9628,-2.9715,-2.9753,-2.972,-2.9898,-2.9837,-2.9848,-2.9852,-2.9902,-2.9923,-2.9942,-2.9697,-2.9695,-2.9694,0,0,-2.9605,-2.9611,-2.9678,-2.9688,-2.9703,-2.9691,-2.9707,-2.9712,-2.971,-2.9779,-2.9733,-2.9773,-2.9841,-2.9855,-2.9871,-3.0013,-2.9978,-3.0026,-3.011,-3.0163,-3.0181,-3.0196,-3.0249,-3.0268,-3.0037,-3.0037,-3.0037,0,-2.9681,-2.9748,-2.9716,-2.9772,-2.9791,-2.9735,-2.9803,-2.9815,-2.9841,-2.9856,-2.9818,-2.9902,-2.9909,-2.9999,-3.0034,-3.0048,-3.0066,-3.0025,-3.0181,-3.0196,-3.021,-3.026,-3.028,-3.0043,-3.0042,-3.0042,-3.0041,0,-2.9841,-2.9888,-2.994,-2.9967,-2.9991,-3.0053,-3.0031,-3.006,-3.0036,-3.0028,-3.01,-3.0106,-3.0143,-3.0162,-3.0139,-3.0249,-3.0228,-3.0186,-3.0119,-3.0237,-3.0284,-3.0303,-3.0051,-3.0049,-3.0048,-3.0046,0,0,-3.0036,-3.0043,-3.0063,-3.0075,-3.0087,-3.0124,-3.0183,-3.0218,-3.0244,-3.0264,-3.0314,-3.0372,-3.0334,-3.0352,-3.033,-3.0376,-3.0491,-3.0328,-3.0328,-3.036,-3.0616,-3.0649,-3.0672,-3.0466,-3.047,-3.0473,-3.0615,0,-3.0172,-3.0274,-3.0247,-3.0349,-3.0393,-3.0341,-3.0392,-3.0406,-3.04,-3.0438,-3.0431,-3.0474,-3.0418,-3.0429,-3.0472,-3.0468,-3.0542,-3.0457,-3.0515,-3.0517,-3.0514,-3.0696,-3.0731,-3.0865,-3.0633,-3.0636,-3.0638,0,-3.0346,-3.0372,-3.0478,-3.0484,-3.0502,-3.0549,-3.0579,-3.0615,-3.063,-3.0622,-3.0643,-3.0612,-3.0672,-3.0603,-3.0686,-3.0628,-3.065,-3.0652,-3.0656,-3.0662,-3.0586,-3.0709,-3.0907,-3.0928,-3.0666,-3.0664,-3.0662,0,-3.048,-3.0542,-3.0613,-3.0625,-3.0633,-3.0668,-3.0673,-3.0684,-3.0707,-3.0733,-3.0749,-3.0782,-3.0801,-3.0828,-3.0808,-3.0759,-3.0895,-3.0824,-3.0892,-3.0893,-3.0925,-3.0923,-3.1131,-3.0935,-3.0935,-3.0935,-3.0934,0,-3.0637,-3.0704,-3.0674,-3.0719,-3.0793,-3.0762,-3.0836,-3.0835,-3.0846,-3.089,-3.0846,-3.0889,-3.0858,-3.0898,-3.0882,-3.0955,-3.0963,-3.096,-3.0955,-3.0965,-3.0966,-3.0981,-3.0972,-3.094,-3.0939,-3.0938,-3.0937,0,-3.08,-3.0782,-3.0857,-3.0859,-3.0861,-3.0916,-3.0918,-3.0959,-3.095,-3.1007,-3.1018,-3.1004,-3.1049,-3.1031,-3.1079,-3.1068,-3.1161,-3.1143,-3.1157,-3.1153,-3.1223,-3.1218,-3.1449,-3.1479,-3.1262,-3.1264,-3.1266,0,-3.0902,-3.0953,-3.096,-3.0986,-3.0995,-3.1037,-3.1061,-3.1032,-3.1058,-3.1079,-3.1119,-3.116,-3.1192,-3.1267,-3.1262,-3.1299,-3.1282,-3.1361,-3.1288,-3.1297,-3.1286,-3.1285,-3.1291,-3.1377,-3.1379,-3.1381,-3.1383,0,-3.1087,-3.1076,-3.111,-3.1143,-3.1172,-3.1197,-3.1217,-3.1241,-3.1213,-3.1245,-3.1291,-3.1315,-3.1364,-3.1407,-3.1439,-3.1445,-3.1411,-3.1406,-3.1424,-3.1436,-3.1442,-3.1442,-3.1199,-3.1401,-3.1399,-3.1398,-3.1397,-3.1396,-3.1224,-3.1267,-3.128,-3.132,-3.1333,-3.1353,-3.1393,-3.1388,-3.1426,-3.1463,-3.1443,-3.1497,-3.1512,-3.1552,-3.1563,-3.1605,-3.1575,-3.16,-3.1607,-3.1615,-3.1625,-3.1433,-3.1611,-3.161,-3.161,-3.1609,-3.1609,0,-3.1408,-3.1413,-3.1451,-3.1481,-3.1514,-3.1476,-3.1497,-3.1528,-3.1575,-3.1591,-3.1623,-3.1676,-3.1717,-3.1715,-3.1753,-3.1788,-3.1773,-3.1799,-3.1797,-3.18,-3.1649,-3.1631,-3.181,-3.181,-3.181,-3.181,-3.181,-3.181,-3.1508,-3.158,-3.157,-3.1648,-3.1653,-3.1705,-3.172,-3.1739,-3.1752,-3.1813,-3.1847,-3.1845,-3.1854,-3.1892,-3.1929,-3.1927,-3.1944,-3.1977,-3.197,-3.183,-3.181,-3.1791,-3.1774,-3.198,-3.1981,-3.2117,-3.2118,-3.2119]},{"header":{"parameterUnit":"m.s-1","parameterCategory":1,"la1":30.2991,"la2":30.254,"lo1":-89.0895,"lo2":-89.0444,"dy":0.0017,"dx":0.0017,"nx":28,"ny":28,"refTime":"2025-02-10T09:00:00:Z","depth":0,"parameterNumber":3,"parameterNumberName":"V-component_of_WINDS"},"data":[0,0,0,0,0,0,0,0,0,0,0,0,0,0,0,0,0,0,0,0,0,0,0,0,0,0,0,0,0,0,0,0,0,0,0,0,0,0,0,0,0,0,0,0,0,0,0,0,0,0,0,0,0,0,0,0,0,0,-3.1051,-3.1051,0,-3.1065,-3.1065,-3.1066,-3.1032,-3.1031,-3.103,-3.1029,-3.1042,-3.1043,-3.1044,0,0,0,0,0,0,0,0,0,0,0,0,0,-3.0993,-3.0994,-3.1051,-3.1052,-3.1052,-3.1065,-3.1065,-3.1066,-3.1032,-3.1031,-3.1029,-3.1028,-3.1041,-3.1043,-3.1045,0,0,0,0,0,0,0,0,0,0,0,0,0,-3.1014,-3.0995,-3.1051,-3.1037,-3.1035,-3.1065,-3.1065,-3.1066,-3.1032,-3.1031,-3.1029,-3.1028,-3.1041,-3.1043,-3.1045,-3.1089,0,0,-3.1051,-3.1052,0,0,0,0,0,0,0,0,-3.1013,-3.1016,-3.1039,-3.1038,-3.1036,-3.1045,-3.105,-3.1074,-3.1033,-3.1033,-3.1029,-3.1027,-3.1044,-3.1046,-3.1052,-3.109,-3.109,-3.1051,-3.1052,-3.1053,-3.1054,0,0,0,0,0,0,0,-3.1011,-3.1015,-3.1057,-3.1039,-3.1038,-3.1028,-3.103,-3.1054,-3.1048,-3.1033,-3.1031,-3.1033,-3.1043,-3.105,-3.1052,-3.1091,-3.1051,-3.1053,-3.1054,-3.1055,-3.1164,-3.1166,0,0,0,0,0,0,-3.1012,-3.1014,-3.1056,-3.1057,-3.102,-3.1031,-3.1032,-3.1044,-3.1047,-3.1046,-3.1034,-3.1031,-3.1047,-3.105,-3.1052,-3.1104,-3.1053,-3.1055,-3.1056,-3.1163,-3.1165,-3.1167,0,0,0,0,0,0,-3.1011,-3.1016,-3.1056,-3.1035,-3.1039,-3.1034,-3.1047,-3.1045,-3.1052,-3.1048,-3.1047,-3.1043,-3.1046,-3.1049,-3.108,-3.1104,-3.1056,-3.1058,-3.1161,-3.1163,-3.1166,-3.1208,0,0,0,0,0,0,-3.101,-3.1016,-3.1034,-3.1036,-3.1041,-3.1084,-3.1049,-3.1047,-3.1056,-3.1052,-3.1055,-3.1054,-3.1045,-3.1077,-3.1082,-3.1106,-3.1059,-3.1159,-3.1162,-3.1165,-3.1204,-3.1211,-3.1218,0,0,0,0,0,-3.1008,-3.1045,-3.1035,-3.104,-3.1063,-3.1086,-3.1088,-3.1077,-3.1058,-3.1075,-3.1072,-3.1054,-3.11,-3.1081,-3.1086,-3.111,-3.1157,-3.1161,-3.1165,-3.1201,-3.121,-3.1218,0,0,0,0,0,0,-3.1045,-3.1045,-3.1034,-3.1073,-3.108,-3.108,-3.1101,-3.1087,-3.1099,-3.1095,-3.108,-3.1082,-3.1115,-3.1116,-3.1094,-3.1153,-3.1125,-3.113,-3.1151,-3.116,-3.1166,-3.1165,-3.1061,0,0,0,0,0,-3.1058,-3.1078,-3.1076,-3.1111,-3.1115,-3.1107,-3.1117,-3.1108,-3.1114,-3.1117,-3.1116,-3.1123,-3.1138,-3.1149,-3.1163,-3.1204,-3.1204,-3.1223,-3.123,-3.1236,-3.124,-3.1261,-3.1269,-3.1179,-3.1179,-3.1179,0,0,-3.1085,-3.1087,-3.11,-3.1118,-3.1122,-3.1142,-3.111,-3.1132,-3.1147,-3.112,-3.1149,-3.1149,-3.1155,-3.119,-3.1206,-3.1192,-3.1265,-3.1241,-3.1245,-3.1246,-3.1266,-3.1274,-3.1282,-3.1182,-3.1181,-3.1181,0,0,-3.1144,-3.1148,-3.1177,-3.1182,-3.1188,-3.1183,-3.119,-3.1192,-3.1191,-3.122,-3.12,-3.1216,-3.1244,-3.1249,-3.1255,-3.1314,-3.1298,-3.1319,-3.1354,-3.1375,-3.1382,-3.1388,-3.1409,-3.1416,-3.1324,-3.1324,-3.1324,0,-3.1177,-3.1206,-3.1193,-3.1217,-3.1225,-3.1202,-3.123,-3.1235,-3.1246,-3.1252,-3.1236,-3.127,-3.1272,-3.1308,-3.1323,-3.1329,-3.1335,-3.1319,-3.1382,-3.1388,-3.1393,-3.1413,-3.1421,-3.1326,-3.1326,-3.1326,-3.1326,0,-3.1245,-3.1266,-3.1288,-3.1299,-3.131,-3.1336,-3.1326,-3.1338,-3.1328,-3.1324,-3.1353,-3.1355,-3.1369,-3.1377,-3.1367,-3.1411,-3.1402,-3.1384,-3.1356,-3.1405,-3.1423,-3.143,-3.133,-3.1329,-3.1328,-3.1328,0,0,-3.1329,-3.1332,-3.1341,-3.1345,-3.135,-3.1365,-3.1389,-3.1403,-3.1413,-3.1421,-3.1441,-3.1464,-3.1448,-3.1455,-3.1445,-3.1463,-3.1509,-3.1443,-3.1443,-3.1455,-3.1557,-3.157,-3.1579,-3.1498,-3.15,-3.1501,-3.1556,0,-3.1387,-3.1429,-3.1418,-3.146,-3.1478,-3.1456,-3.1476,-3.1481,-3.1478,-3.1493,-3.1489,-3.1506,-3.1483,-3.1486,-3.1503,-3.15,-3.1529,-3.1496,-3.1516,-3.1517,-3.1515,-3.1589,-3.1603,-3.1655,-3.1563,-3.1565,-3.1565,0,-3.1461,-3.1471,-3.1515,-3.1516,-3.1523,-3.1542,-3.1553,-3.1567,-3.1572,-3.1568,-3.1576,-3.1562,-3.1585,-3.1557,-3.1588,-3.1565,-3.1573,-3.1572,-3.1574,-3.1575,-3.1544,-3.1591,-3.1672,-3.1679,-3.1576,-3.1576,-3.1575,0,-3.1517,-3.1542,-3.1571,-3.1575,-3.1577,-3.1591,-3.1592,-3.1596,-3.1604,-3.1614,-3.1619,-3.1631,-3.1638,-3.1647,-3.1636,-3.1617,-3.1669,-3.164,-3.1666,-3.1666,-3.1678,-3.1677,-3.176,-3.1684,-3.1683,-3.1683,-3.1683,0,-3.1582,-3.161,-3.1596,-3.1614,-3.1644,-3.163,-3.1659,-3.1658,-3.1661,-3.1678,-3.1659,-3.1675,-3.166,-3.1675,-3.1667,-3.1693,-3.1696,-3.1694,-3.1691,-3.1695,-3.1696,-3.17,-3.1696,-3.1685,-3.1685,-3.1684,-3.1684,0,-3.1651,-3.1642,-3.1673,-3.1672,-3.1672,-3.1694,-3.1693,-3.1709,-3.1704,-3.1725,-3.1729,-3.1721,-3.1737,-3.1728,-3.1744,-3.1738,-3.1773,-3.1766,-3.1772,-3.1769,-3.1796,-3.1793,-3.1884,-3.1895,-3.1812,-3.1812,-3.1813,0,-3.1693,-3.1713,-3.1714,-3.1724,-3.1727,-3.1743,-3.1751,-3.1738,-3.1748,-3.1754,-3.1769,-3.1783,-3.1794,-3.182,-3.1816,-3.1828,-3.1821,-3.1852,-3.1822,-3.1825,-3.182,-3.1819,-3.1821,-3.1857,-3.1858,-3.1859,-3.186,0,-3.1769,-3.1764,-3.1777,-3.1788,-3.1799,-3.1807,-3.1814,-3.1823,-3.181,-3.1821,-3.1837,-3.1845,-3.1862,-3.1876,-3.1886,-3.1886,-3.1871,-3.1869,-3.1876,-3.188,-3.1882,-3.1881,-3.1787,-3.1867,-3.1866,-3.1866,-3.1865,-3.1865,-3.1825,-3.1842,-3.1845,-3.186,-3.1863,-3.187,-3.1884,-3.1881,-3.1894,-3.1906,-3.1898,-3.1916,-3.1919,-3.1931,-3.1934,-3.1948,-3.1935,-3.1945,-3.1947,-3.195,-3.1953,-3.188,-3.195,-3.1949,-3.1949,-3.1949,-3.1949,0,-3.19,-3.19,-3.1914,-3.1924,-3.1935,-3.1919,-3.1926,-3.1936,-3.1953,-3.1957,-3.1968,-3.1985,-3.1999,-3.1995,-3.2007,-3.2019,-3.2012,-3.2022,-3.2021,-3.2021,-3.1964,-3.1957,-3.2028,-3.2028,-3.2028,-3.2028,-3.2027,-3.2027,-3.194,-3.1967,-3.1962,-3.199,-3.199,-3.2008,-3.2013,-3.2019,-3.2022,-3.2042,-3.2053,-3.2051,-3.2051,-3.2063,-3.2074,-3.2073,-3.2078,-3.2091,-3.2087,-3.2033,-3.2025,-3.2018,-3.2011,-3.2092,-3.2092,-3.2143,-3.2143,-3.2143]}]]